EWG18J LOWG-EDDH

Flight info

Callsign EWG18J
Flight time 1h 28m
Altitude 34000
Route MILGO DCT LAMSI/N0446F380 L604 RUDNO M736 AKOSI DCT EMBOX M726 ERNUD M748 BUMIL/N0419F240 M748 RARUP RARUP3P
Aircraft A319/M-SDE3FGHIRWY/LB1

Departure

Time 2026-04-25 17:37
Airport Graz Airport (LOWG)

Arrival

Time 2026-04-25 19:05
Airport Hamburg Helmut Schmidt Airport (EDDH)
Time Latitude Longitude Altitude Speed Heading
2026-04-25 17:08 46.99587 15.44324 1113 ft 0 kts 127°
2026-04-25 17:33 46.99578 15.44326 1113 ft 3 kts 181°
2026-04-25 17:34 46.99571 15.44265 1110 ft 11 kts 289°
2026-04-25 17:34 46.99669 15.44210 1110 ft 21 kts 351°
2026-04-25 17:34 46.99822 15.44173 1110 ft 23 kts 348°
2026-04-25 17:34 46.99937 15.44111 1113 ft 15 kts 299°
2026-04-25 17:35 46.99912 15.43964 1117 ft 17 kts 227°
2026-04-25 17:35 46.99795 15.43891 1116 ft 20 kts 193°
2026-04-25 17:35 46.99711 15.43804 1114 ft 11 kts 226°
2026-04-25 17:35 46.99657 15.43812 1110 ft 0 kts 169°
2026-04-25 17:36 46.99597 15.43828 1112 ft 33 kts 169°
2026-04-25 17:36 46.99167 15.43948 1110 ft 94 kts 169°
2026-04-25 17:36 46.98327 15.44180 1109 ft 148 kts 169°
2026-04-25 17:36 46.97304 15.44465 1688 ft 149 kts 170°
2026-04-25 17:37 46.96276 15.44751 2305 ft 152 kts 169°
2026-04-25 17:37 46.95156 15.45060 2659 ft 174 kts 170°
2026-04-25 17:37 46.93915 15.45397 2995 ft 195 kts 170°
2026-04-25 17:37 46.92506 15.45780 3394 ft 215 kts 170°
2026-04-25 17:38 46.90979 15.45967 3972 ft 225 kts 190°
2026-04-25 17:38 46.90466 15.45768 4215 ft 226 kts 202°
2026-04-25 17:38 46.88691 15.43123 5453 ft 226 kts 253°
2026-04-25 17:38 46.88563 15.40864 6202 ft 225 kts 283°
2026-04-25 17:39 46.89219 15.38824 6934 ft 224 kts 311°
2026-04-25 17:39 46.90462 15.37494 7682 ft 223 kts 333°
2026-04-25 17:39 46.91859 15.36503 8479 ft 223 kts 333°
2026-04-25 17:39 46.93256 15.35511 9261 ft 224 kts 333°
2026-04-25 17:40 46.94658 15.34512 10020 ft 225 kts 332°
2026-04-25 17:40 46.96066 15.33508 10702 ft 226 kts 332°
2026-04-25 17:40 46.97486 15.32492 11384 ft 228 kts 332°
2026-04-25 17:40 46.98943 15.31452 11866 ft 243 kts 333°
2026-04-25 17:41 47.00540 15.30317 12210 ft 267 kts 333°
2026-04-25 17:41 47.02282 15.29078 12541 ft 291 kts 333°
2026-04-25 17:41 47.04182 15.27726 12824 ft 315 kts 333°
2026-04-25 17:41 47.06221 15.26276 13119 ft 335 kts 333°
2026-04-25 17:42 47.08350 15.24763 13754 ft 343 kts 333°
2026-04-25 17:42 47.10507 15.23230 14423 ft 347 kts 333°
2026-04-25 17:42 47.12688 15.21682 15111 ft 350 kts 333°
2026-04-25 17:42 47.14891 15.20116 15800 ft 353 kts 333°
2026-04-25 17:43 47.17113 15.18529 16501 ft 357 kts 333°
2026-04-25 17:43 47.19326 15.16943 17180 ft 360 kts 332°
2026-04-25 17:43 47.21584 15.15324 17890 ft 364 kts 333°
2026-04-25 17:43 47.23876 15.13679 18566 ft 367 kts 332°
2026-04-25 17:44 47.26185 15.12024 19162 ft 371 kts 332°
2026-04-25 17:44 47.28518 15.10354 19765 ft 375 kts 332°
2026-04-25 17:44 47.30805 15.08484 20352 ft 378 kts 324°
2026-04-25 17:44 47.32936 15.06186 20960 ft 381 kts 322°
2026-04-25 17:45 47.35080 15.03855 21548 ft 385 kts 322°
2026-04-25 17:45 47.35809 15.03065 21738 ft 386 kts 322°
2026-04-25 17:45 47.39433 14.99142 22668 ft 391 kts 322°
2026-04-25 17:45 47.41635 14.96758 23196 ft 395 kts 322°
2026-04-25 17:46 47.43860 14.94346 23701 ft 398 kts 322°
2026-04-25 17:46 47.46099 14.91912 24144 ft 401 kts 321°
2026-04-25 17:46 47.48351 14.89461 24602 ft 403 kts 321°
2026-04-25 17:46 47.50619 14.86992 25054 ft 406 kts 321°
2026-04-25 17:47 47.52895 14.84512 25494 ft 408 kts 321°
2026-04-25 17:47 47.55191 14.82009 25939 ft 411 kts 321°
2026-04-25 17:47 47.57503 14.79481 26397 ft 413 kts 321°
2026-04-25 17:47 47.59819 14.76943 26842 ft 416 kts 321°
2026-04-25 17:48 47.64497 14.71806 27687 ft 421 kts 321°
2026-04-25 17:48 47.66860 14.69216 28102 ft 423 kts 321°
2026-04-25 17:48 47.69232 14.66614 28507 ft 426 kts 321°
2026-04-25 17:49 47.71589 14.64022 28884 ft 428 kts 321°
2026-04-25 17:49 47.73993 14.61375 29260 ft 431 kts 321°
2026-04-25 17:49 47.76404 14.58713 29631 ft 433 kts 321°
2026-04-25 17:49 47.78831 14.56034 30009 ft 436 kts 321°
2026-04-25 17:50 47.81269 14.53341 30339 ft 438 kts 321°
2026-04-25 17:50 47.83720 14.50626 30661 ft 440 kts 321°
2026-04-25 17:50 47.86180 14.47896 31039 ft 440 kts 321°
2026-04-25 17:50 47.88625 14.45182 31507 ft 438 kts 321°
2026-04-25 17:51 47.91069 14.42467 31979 ft 436 kts 321°
2026-04-25 17:51 47.93495 14.39768 32443 ft 435 kts 321°
2026-04-25 17:51 47.95912 14.37077 32906 ft 433 kts 321°
2026-04-25 17:51 47.98328 14.34387 33371 ft 432 kts 321°
2026-04-25 17:52 48.00725 14.31714 33855 ft 430 kts 321°
2026-04-25 17:52 48.01541 14.30803 34019 ft 430 kts 321°
2026-04-25 17:52 48.05511 14.26363 34711 ft 428 kts 321°
2026-04-25 17:52 48.07885 14.23705 35121 ft 427 kts 321°
2026-04-25 17:53 48.10262 14.21042 35523 ft 426 kts 321°
2026-04-25 17:53 48.12629 14.18385 35916 ft 425 kts 321°
2026-04-25 17:53 48.14987 14.15727 36294 ft 424 kts 321°
2026-04-25 17:53 48.17341 14.13069 36674 ft 423 kts 321°
2026-04-25 17:54 48.19688 14.10419 37039 ft 422 kts 321°
2026-04-25 17:54 48.22029 14.07777 37406 ft 421 kts 321°
2026-04-25 17:54 48.23584 14.06019 37635 ft 421 kts 321°
2026-04-25 17:54 48.26712 14.02482 37998 ft 421 kts 321°
2026-04-25 17:55 48.28256 14.00737 38033 ft 419 kts 321°
2026-04-25 17:55 48.33646 13.94635 38037 ft 417 kts 321°
2026-04-25 17:56 48.38264 13.89376 38037 ft 416 kts 321°
2026-04-25 17:56 48.42124 13.84976 38043 ft 416 kts 321°
2026-04-25 17:57 48.46730 13.79711 38049 ft 415 kts 321°
2026-04-25 17:57 48.51329 13.74449 38059 ft 415 kts 321°
2026-04-25 17:58 48.55889 13.69229 38064 ft 414 kts 321°
2026-04-25 17:58 48.60471 13.63966 38075 ft 413 kts 321°
2026-04-25 17:59 48.65033 13.58674 38068 ft 412 kts 318°
2026-04-25 17:59 48.69145 13.52651 38074 ft 411 kts 314°
2026-04-25 18:00 48.73195 13.46565 38068 ft 410 kts 314°
2026-04-25 18:00 48.77234 13.40483 38071 ft 409 kts 314°
2026-04-25 18:01 48.81279 13.34399 38072 ft 409 kts 314°
2026-04-25 18:01 48.85306 13.28318 38070 ft 408 kts 314°
2026-04-25 18:02 48.89292 13.22279 38064 ft 407 kts 314°
2026-04-25 18:02 48.93293 13.16196 38067 ft 407 kts 314°
2026-04-25 18:03 48.97296 13.10099 38067 ft 407 kts 314°
2026-04-25 18:03 49.01300 13.03991 38062 ft 407 kts 314°
2026-04-25 18:04 49.05289 12.97882 38058 ft 407 kts 314°
2026-04-25 18:04 49.09271 12.91766 38051 ft 406 kts 314°
2026-04-25 18:05 49.13254 12.85636 38054 ft 406 kts 313°
2026-04-25 18:05 49.17225 12.79513 38050 ft 406 kts 314°
2026-04-25 18:06 49.21201 12.73388 38049 ft 406 kts 314°
2026-04-25 18:06 49.25137 12.67287 38051 ft 405 kts 313°
2026-04-25 18:07 49.29408 12.61704 38051 ft 408 kts 331°
2026-04-25 18:07 49.34836 12.59010 38049 ft 411 kts 341°
2026-04-25 18:08 49.40360 12.56646 38053 ft 411 kts 341°
2026-04-25 18:08 49.45868 12.54272 38052 ft 411 kts 341°
2026-04-25 18:09 49.51369 12.51873 38053 ft 411 kts 341°
2026-04-25 18:09 49.56874 12.49481 38049 ft 411 kts 341°
2026-04-25 18:10 49.62374 12.47089 38061 ft 411 kts 340°
2026-04-25 18:10 49.67866 12.44684 38059 ft 410 kts 340°
2026-04-25 18:11 49.73363 12.42280 38052 ft 410 kts 340°
2026-04-25 18:11 49.78848 12.39873 38062 ft 410 kts 340°
2026-04-25 18:12 49.84329 12.37455 38059 ft 409 kts 340°
2026-04-25 18:12 49.89764 12.35054 38063 ft 409 kts 340°
2026-04-25 18:13 49.95230 12.32654 38068 ft 408 kts 340°
2026-04-25 18:13 50.00692 12.30236 38065 ft 408 kts 340°
2026-04-25 18:14 50.08870 12.26590 38072 ft 407 kts 340°
2026-04-25 18:14 50.14313 12.24153 38073 ft 407 kts 340°
2026-04-25 18:15 50.19748 12.21728 38073 ft 406 kts 340°
2026-04-25 18:15 50.25187 12.19312 38075 ft 406 kts 340°
2026-04-25 18:16 50.30615 12.16884 38079 ft 405 kts 340°
2026-04-25 18:17 50.38737 12.13226 38075 ft 404 kts 340°
2026-04-25 18:17 50.44144 12.10792 38079 ft 404 kts 340°
2026-04-25 18:18 50.49535 12.08346 38079 ft 403 kts 340°
2026-04-25 18:18 50.54921 12.05892 38076 ft 403 kts 340°
2026-04-25 18:19 50.60303 12.03440 38075 ft 402 kts 340°
2026-04-25 18:19 50.65677 12.00989 38078 ft 402 kts 340°
2026-04-25 18:20 50.71053 11.98538 38072 ft 402 kts 340°
2026-04-25 18:20 50.76418 11.96087 38077 ft 401 kts 340°
2026-04-25 18:21 50.81777 11.93629 38076 ft 401 kts 340°
2026-04-25 18:21 50.87103 11.91179 38076 ft 401 kts 339°
2026-04-25 18:22 50.92457 11.88693 38075 ft 401 kts 339°
2026-04-25 18:22 50.97814 11.86212 38075 ft 401 kts 340°
2026-04-25 18:23 51.03162 11.83732 38075 ft 400 kts 339°
2026-04-25 18:23 51.08509 11.81245 38068 ft 400 kts 340°
2026-04-25 18:24 51.13853 11.78765 38069 ft 400 kts 340°
2026-04-25 18:24 51.19198 11.76280 38068 ft 400 kts 340°
2026-04-25 18:25 51.24541 11.73764 38060 ft 400 kts 340°
2026-04-25 18:25 51.29884 11.71250 38064 ft 400 kts 340°
2026-04-25 18:26 51.35133 11.68785 38058 ft 400 kts 340°
2026-04-25 18:26 51.40476 11.66269 38061 ft 400 kts 340°
2026-04-25 18:27 51.45815 11.63736 38064 ft 400 kts 340°
2026-04-25 18:27 51.51117 11.61224 38063 ft 400 kts 340°
2026-04-25 18:28 51.56456 11.58696 38066 ft 400 kts 340°
2026-04-25 18:28 51.61792 11.56156 38067 ft 399 kts 340°
2026-04-25 18:29 51.69773 11.52340 38055 ft 399 kts 340°
2026-04-25 18:30 51.80396 11.47250 38049 ft 397 kts 340°
2026-04-25 18:30 51.85692 11.44698 38050 ft 396 kts 340°
2026-04-25 18:31 51.90968 11.42142 38050 ft 396 kts 340°
2026-04-25 18:31 51.96312 11.40078 37479 ft 398 kts 351°
2026-04-25 18:32 51.99077 11.39783 36880 ft 400 kts 352°
2026-04-25 18:32 52.01859 11.39511 36255 ft 400 kts 352°
2026-04-25 18:32 52.04641 11.39250 35618 ft 401 kts 352°
2026-04-25 18:32 52.07431 11.38991 35092 ft 401 kts 352°
2026-04-25 18:33 52.10183 11.38730 34730 ft 402 kts 352°
2026-04-25 18:33 52.13014 11.38455 34369 ft 403 kts 352°
2026-04-25 18:33 52.15784 11.38184 34013 ft 403 kts 352°
2026-04-25 18:33 52.18617 11.37905 33606 ft 404 kts 352°
2026-04-25 18:34 52.21393 11.37634 33209 ft 404 kts 352°
2026-04-25 18:34 52.24242 11.37359 32804 ft 405 kts 352°
2026-04-25 18:34 52.27057 11.37085 32330 ft 406 kts 352°
2026-04-25 18:34 52.29842 11.36806 31816 ft 407 kts 351°
2026-04-25 18:35 52.32671 11.36522 31322 ft 408 kts 351°
2026-04-25 18:35 52.35513 11.36240 30909 ft 409 kts 351°
2026-04-25 18:35 52.38356 11.35963 30542 ft 410 kts 351°
2026-04-25 18:35 52.41212 11.35688 30178 ft 412 kts 351°
2026-04-25 18:36 52.44078 11.35408 29761 ft 412 kts 351°
2026-04-25 18:36 52.46938 11.35126 29340 ft 412 kts 351°
2026-04-25 18:36 52.49800 11.34844 28924 ft 410 kts 351°
2026-04-25 18:36 52.52636 11.34570 28515 ft 407 kts 351°
2026-04-25 18:37 52.55457 11.34298 28110 ft 404 kts 351°
2026-04-25 18:37 52.58261 11.34022 27715 ft 402 kts 351°
2026-04-25 18:37 52.61034 11.33743 27325 ft 399 kts 351°
2026-04-25 18:37 52.63796 11.33463 26945 ft 396 kts 351°
2026-04-25 18:38 52.66536 11.33190 26528 ft 391 kts 351°
2026-04-25 18:38 52.69234 11.32926 25898 ft 386 kts 350°
2026-04-25 18:38 52.71904 11.32666 25264 ft 382 kts 350°
2026-04-25 18:38 52.74538 11.32406 24639 ft 377 kts 350°
2026-04-25 18:39 52.77147 11.32145 24024 ft 373 kts 350°
2026-04-25 18:39 52.79674 11.31530 23371 ft 361 kts 338°
2026-04-25 18:39 52.81896 11.29811 22796 ft 347 kts 323°
2026-04-25 18:39 52.83663 11.27204 22295 ft 338 kts 312°
2026-04-25 18:40 52.85237 11.24353 21796 ft 332 kts 312°
2026-04-25 18:40 52.86777 11.21561 21336 ft 326 kts 312°
2026-04-25 18:40 52.88297 11.18801 20882 ft 321 kts 312°
2026-04-25 18:40 52.89784 11.16097 20449 ft 315 kts 312°
2026-04-25 18:41 52.91245 11.13434 20024 ft 310 kts 312°
2026-04-25 18:41 52.92686 11.10798 19609 ft 308 kts 312°
2026-04-25 18:41 52.94123 11.08170 19196 ft 306 kts 312°
2026-04-25 18:41 52.95547 11.05566 18779 ft 304 kts 312°
2026-04-25 18:42 52.96963 11.02974 18345 ft 302 kts 312°
2026-04-25 18:42 52.97419 11.02140 18190 ft 301 kts 312°
2026-04-25 18:42 52.99751 10.97882 17439 ft 298 kts 312°
2026-04-25 18:42 53.01142 10.95342 16997 ft 296 kts 312°
2026-04-25 18:43 53.02524 10.92812 16547 ft 295 kts 312°
2026-04-25 18:43 53.03893 10.90292 16095 ft 293 kts 312°
2026-04-25 18:43 53.05253 10.87779 15644 ft 297 kts 311°
2026-04-25 18:43 53.06667 10.85149 15197 ft 309 kts 311°
2026-04-25 18:44 53.08100 10.82481 14755 ft 307 kts 311°
2026-04-25 18:44 53.09504 10.79870 14325 ft 299 kts 311°
2026-04-25 18:44 53.10863 10.77343 13891 ft 285 kts 311°
2026-04-25 18:44 53.12150 10.74952 13413 ft 270 kts 311°
2026-04-25 18:45 53.13384 10.72664 12943 ft 261 kts 311°
2026-04-25 18:45 53.14333 10.70189 12478 ft 253 kts 291°
2026-04-25 18:45 53.14521 10.67274 12013 ft 255 kts 276°
2026-04-25 18:45 53.14464 10.64335 11556 ft 253 kts 275°
2026-04-25 18:46 53.14388 10.61417 11114 ft 253 kts 275°
2026-04-25 18:46 53.14311 10.58471 10707 ft 254 kts 274°
2026-04-25 18:46 53.14234 10.55561 10459 ft 249 kts 274°
2026-04-25 18:46 53.14157 10.52696 10161 ft 246 kts 274°
2026-04-25 18:47 53.14104 10.50838 10086 ft 240 kts 274°
2026-04-25 18:47 53.14020 10.48114 9959 ft 230 kts 274°
2026-04-25 18:47 53.14078 10.45568 9800 ft 210 kts 291°
2026-04-25 18:47 53.14848 10.43641 9535 ft 200 kts 319°
2026-04-25 18:48 53.15987 10.42301 9142 ft 201 kts 324°
2026-04-25 18:48 53.17166 10.41046 8781 ft 201 kts 324°
2026-04-25 18:48 53.18343 10.39805 8417 ft 200 kts 324°
2026-04-25 18:48 53.19515 10.38570 8046 ft 199 kts 324°
2026-04-25 18:49 53.20682 10.37329 7684 ft 199 kts 324°
2026-04-25 18:49 53.21844 10.36081 7319 ft 198 kts 324°
2026-04-25 18:49 53.23001 10.34828 6966 ft 198 kts 324°
2026-04-25 18:49 53.24152 10.33570 6617 ft 198 kts 324°
2026-04-25 18:50 53.25341 10.32419 6237 ft 198 kts 329°
2026-04-25 18:50 53.26556 10.31339 5873 ft 198 kts 330°
2026-04-25 18:50 53.27763 10.30285 5662 ft 192 kts 330°
2026-04-25 18:50 53.28901 10.29294 5491 ft 179 kts 330°
2026-04-25 18:51 53.29992 10.28343 5208 ft 175 kts 330°
2026-04-25 18:51 53.30705 10.27720 5056 ft 174 kts 330°
2026-04-25 18:51 53.32140 10.26459 5014 ft 175 kts 330°
2026-04-25 18:51 53.33219 10.25519 5017 ft 175 kts 330°
2026-04-25 18:52 53.34340 10.24722 4997 ft 179 kts 347°
2026-04-25 18:52 53.35590 10.25171 5014 ft 198 kts 22°
2026-04-25 18:52 53.36510 10.27010 5024 ft 221 kts 58°
2026-04-25 18:52 53.36692 10.29617 5031 ft 239 kts 88°
2026-04-25 18:53 53.36429 10.32394 5011 ft 242 kts 94°
2026-04-25 18:53 53.36105 10.35156 5011 ft 242 kts 94°
2026-04-25 18:53 53.35767 10.37921 5005 ft 244 kts 97°
2026-04-25 18:53 53.34999 10.40463 4793 ft 250 kts 130°
2026-04-25 18:54 53.31939 10.42138 4089 ft 228 kts 204°
2026-04-25 18:54 53.30673 10.40865 3748 ft 203 kts 240°
2026-04-25 18:54 53.30189 10.38848 3425 ft 180 kts 277°
2026-04-25 18:55 53.30567 10.36965 3086 ft 170 kts 310°
2026-04-25 18:55 53.31367 10.35517 2997 ft 171 kts 309°
2026-04-25 18:55 53.32039 10.33863 3006 ft 173 kts 305°
2026-04-25 18:55 53.32681 10.32166 3009 ft 172 kts 304°
2026-04-25 18:56 53.33313 10.30472 3011 ft 172 kts 304°
2026-04-25 18:56 53.33944 10.28772 3015 ft 172 kts 304°
2026-04-25 18:56 53.34570 10.27083 3015 ft 172 kts 304°
2026-04-25 18:56 53.35204 10.25378 3014 ft 173 kts 304°
2026-04-25 18:57 53.35843 10.23711 3017 ft 172 kts 308°
2026-04-25 18:57 53.36732 10.22383 3021 ft 173 kts 327°
2026-04-25 18:57 53.37805 10.21448 3024 ft 174 kts 330°
2026-04-25 18:57 53.38514 10.20827 3024 ft 173 kts 330°
2026-04-25 18:58 53.39924 10.19579 3024 ft 173 kts 330°
2026-04-25 18:58 53.42043 10.17691 3025 ft 173 kts 330°
2026-04-25 18:58 53.43104 10.16747 3025 ft 173 kts 330°
2026-04-25 18:59 53.45242 10.14891 3030 ft 173 kts 330°
2026-04-25 18:59 53.47239 10.13183 3032 ft 174 kts 331°
2026-04-25 19:00 53.49282 10.11441 3026 ft 152 kts 330°
2026-04-25 19:00 53.50204 10.10655 2891 ft 148 kts 330°
2026-04-25 19:01 53.52010 10.09107 2448 ft 145 kts 330°
2026-04-25 19:01 53.52904 10.08341 2239 ft 145 kts 329°
2026-04-25 19:01 53.53798 10.07573 2050 ft 144 kts 329°
2026-04-25 19:01 53.54697 10.06800 1859 ft 146 kts 329°
2026-04-25 19:02 53.56498 10.05248 1468 ft 141 kts 329°
2026-04-25 19:02 53.57325 10.04541 1298 ft 125 kts 329°
2026-04-25 19:02 53.58069 10.03904 1138 ft 117 kts 328°
2026-04-25 19:03 53.59241 10.02870 857 ft 116 kts 330°
2026-04-25 19:03 53.60194 10.02045 666 ft 115 kts 329°
2026-04-25 19:03 53.60871 10.01459 535 ft 115 kts 329°
2026-04-25 19:04 53.62271 10.00255 215 ft 115 kts 330°
2026-04-25 19:04 53.62982 9.99651 70 ft 114 kts 329°
2026-04-25 19:05 53.63913 9.98838 49 ft 22 kts 334°
2026-04-25 19:05 53.63875 9.99075 48 ft 19 kts 127°
2026-04-25 19:05 53.63798 9.99260 49 ft 22 kts 126°
2026-04-25 19:06 53.63700 9.99491 49 ft 25 kts 125°
2026-04-25 19:06 53.63610 9.99702 50 ft 0 kts 124°
2026-04-25 19:07 53.63610 9.99703 50 ft 1 kts 124°
2026-04-25 19:08 53.63538 9.99870 51 ft 14 kts 126°
2026-04-25 19:08 53.63481 10.00002 50 ft 15 kts 126°
2026-04-25 19:09 53.63325 10.00256 46 ft 3 kts 91°
2026-04-25 19:09 53.63327 10.00283 49 ft 4 kts 81°
2026-04-25 19:09 53.63331 10.00356 49 ft 0 kts 86°